[[{"header":{"parameterUnit":"m.s-1","parameterCategory":1,"la1":30.2991,"la2":30.254,"lo1":-89.0895,"lo2":-89.0444,"dy":0.0017,"dx":0.0017,"nx":28,"ny":28,"refTime":"2025-04-29T09:00:00:Z","depth":0,"parameterNumber":2,"parameterNumberName":"U-component_of_WINDS"},"data":[0,0,0,0,0,0,0,0,0,0,0,0,0,0,0,0,0,0,0,0,0,0,0,0,0,0,0,0,0,0,0,0,0,0,0,0,0,0,0,0,0,0,0,0,0,0,0,0,0,0,0,0,0,0,0,0,0,0,-1.373,-1.3731,0,-1.3751,-1.3751,-1.3751,-1.3726,-1.3725,-1.3724,-1.3723,-1.3747,-1.3748,-1.375,0,0,0,0,0,0,0,0,0,0,0,0,0,-1.3674,-1.3675,-1.373,-1.3731,-1.3731,-1.375,-1.3751,-1.3751,-1.3726,-1.3725,-1.3724,-1.3723,-1.3747,-1.3748,-1.375,0,0,0,0,0,0,0,0,0,0,0,0,0,-1.3697,-1.3676,-1.373,-1.3721,-1.372,-1.375,-1.3751,-1.3751,-1.3727,-1.3725,-1.3724,-1.3722,-1.3746,-1.3748,-1.375,-1.3792,0,0,-1.3757,-1.3758,0,0,0,0,0,0,0,0,-1.3696,-1.3699,-1.3722,-1.3722,-1.3721,-1.3734,-1.3739,-1.3765,-1.3727,-1.3724,-1.3723,-1.3722,-1.3744,-1.3746,-1.3753,-1.3793,-1.3794,-1.3757,-1.3759,-1.376,-1.376,0,0,0,0,0,0,0,-1.3694,-1.3698,-1.3738,-1.3722,-1.3722,-1.3717,-1.3718,-1.3744,-1.3742,-1.3724,-1.3723,-1.3725,-1.3744,-1.3751,-1.3754,-1.3794,-1.3757,-1.3759,-1.3761,-1.3762,-1.387,-1.3871,0,0,0,0,0,0,-1.3693,-1.3697,-1.3738,-1.3739,-1.3704,-1.3719,-1.3721,-1.3731,-1.3741,-1.3742,-1.3726,-1.3724,-1.3748,-1.3751,-1.3754,-1.3804,-1.376,-1.3762,-1.3763,-1.3868,-1.387,-1.3872,0,0,0,0,0,0,-1.3692,-1.3697,-1.3737,-1.3717,-1.3722,-1.3721,-1.3734,-1.3733,-1.374,-1.3743,-1.3743,-1.3734,-1.3747,-1.3751,-1.3783,-1.3805,-1.3763,-1.3765,-1.3867,-1.3869,-1.3871,-1.3904,0,0,0,0,0,0,-1.369,-1.3697,-1.3712,-1.3718,-1.3723,-1.3764,-1.3735,-1.3734,-1.3744,-1.3741,-1.375,-1.3751,-1.3746,-1.3779,-1.3785,-1.3807,-1.3767,-1.3865,-1.3868,-1.387,-1.3901,-1.3907,-1.3912,0,0,0,0,0,-1.3689,-1.3721,-1.3713,-1.3718,-1.3742,-1.3765,-1.3769,-1.3762,-1.3746,-1.3761,-1.3763,-1.375,-1.3801,-1.3783,-1.3789,-1.3812,-1.3863,-1.3867,-1.387,-1.3898,-1.3906,-1.3912,0,0,0,0,0,0,-1.3718,-1.3721,-1.3712,-1.3747,-1.3756,-1.3761,-1.3781,-1.377,-1.3785,-1.3782,-1.3774,-1.3776,-1.381,-1.3814,-1.3793,-1.3853,-1.383,-1.3834,-1.3849,-1.3856,-1.3862,-1.386,-1.3768,0,0,0,0,0,-1.3728,-1.3746,-1.3748,-1.3779,-1.3784,-1.3782,-1.3792,-1.3786,-1.3795,-1.3799,-1.3803,-1.3814,-1.3832,-1.3844,-1.3861,-1.3901,-1.3903,-1.392,-1.3926,-1.393,-1.3935,-1.3957,-1.3965,-1.3883,-1.3883,-1.3883,0,0,-1.3751,-1.3754,-1.3766,-1.3785,-1.3791,-1.3811,-1.3785,-1.3807,-1.3822,-1.3803,-1.3832,-1.3836,-1.3847,-1.3883,-1.3899,-1.3888,-1.3958,-1.3935,-1.3939,-1.3941,-1.3962,-1.3969,-1.3976,-1.3886,-1.3885,-1.3885,0,0,-1.3801,-1.3805,-1.3831,-1.3838,-1.3847,-1.3845,-1.3852,-1.3858,-1.386,-1.3889,-1.3876,-1.3894,-1.3925,-1.3934,-1.3943,-1.3996,-1.3986,-1.4002,-1.4033,-1.4054,-1.4061,-1.4066,-1.4086,-1.4094,-1.4007,-1.4007,-1.4007,0,-1.3827,-1.3855,-1.3846,-1.3869,-1.3878,-1.3861,-1.3888,-1.3896,-1.3911,-1.3918,-1.3904,-1.3944,-1.395,-1.3988,-1.4001,-1.4009,-1.4017,-1.4001,-1.406,-1.4066,-1.4071,-1.409,-1.4098,-1.4009,-1.4009,-1.4008,-1.4008,0,-1.3888,-1.3908,-1.3928,-1.3942,-1.3953,-1.3978,-1.3974,-1.3987,-1.398,-1.398,-1.4011,-1.4018,-1.4037,-1.4045,-1.4039,-1.4083,-1.4075,-1.4061,-1.4038,-1.4081,-1.4099,-1.4106,-1.4012,-1.4011,-1.401,-1.401,0,0,-1.3958,-1.3966,-1.3974,-1.398,-1.3989,-1.4005,-1.403,-1.4047,-1.4058,-1.4069,-1.409,-1.4118,-1.4105,-1.4115,-1.4109,-1.4128,-1.4172,-1.4112,-1.4112,-1.4124,-1.4221,-1.4232,-1.4241,-1.4164,-1.4166,-1.4167,-1.4221,0,-1.4009,-1.405,-1.4043,-1.4084,-1.4102,-1.4086,-1.4108,-1.4117,-1.4117,-1.4134,-1.4135,-1.4155,-1.4136,-1.4142,-1.416,-1.4163,-1.4191,-1.4158,-1.4185,-1.4186,-1.4183,-1.425,-1.4261,-1.4312,-1.4227,-1.4228,-1.4229,0,-1.4074,-1.4086,-1.4128,-1.4135,-1.4142,-1.4162,-1.4177,-1.4193,-1.4203,-1.4202,-1.4213,-1.4205,-1.423,-1.4206,-1.4242,-1.422,-1.423,-1.4233,-1.4235,-1.4238,-1.4211,-1.4255,-1.4328,-1.4336,-1.424,-1.4239,-1.4238,0,-1.4121,-1.4149,-1.4178,-1.4183,-1.4191,-1.4206,-1.421,-1.4218,-1.4229,-1.4243,-1.425,-1.4267,-1.4276,-1.429,-1.4287,-1.4269,-1.4324,-1.4299,-1.4325,-1.4326,-1.4338,-1.4338,-1.4414,-1.4344,-1.4344,-1.4344,-1.4343,0,-1.4179,-1.4206,-1.4199,-1.4217,-1.4247,-1.4239,-1.4269,-1.4271,-1.4279,-1.4298,-1.4285,-1.4304,-1.4298,-1.4316,-1.4314,-1.4345,-1.4349,-1.435,-1.4349,-1.4352,-1.4352,-1.4359,-1.4356,-1.4346,-1.4345,-1.4345,-1.4344,0,-1.4238,-1.4234,-1.4265,-1.427,-1.4271,-1.4293,-1.4298,-1.4316,-1.4315,-1.4339,-1.4345,-1.4345,-1.4366,-1.4363,-1.4387,-1.4386,-1.4424,-1.4419,-1.4421,-1.442,-1.4446,-1.4444,-1.4531,-1.4542,-1.4464,-1.4464,-1.4465,0,-1.4275,-1.4295,-1.4302,-1.4313,-1.4318,-1.4337,-1.4348,-1.4341,-1.4353,-1.4366,-1.4382,-1.4401,-1.4417,-1.4451,-1.4454,-1.4473,-1.4468,-1.4497,-1.4471,-1.4473,-1.447,-1.4469,-1.4471,-1.4503,-1.4504,-1.4504,-1.4505,0,-1.4343,-1.434,-1.4355,-1.437,-1.4383,-1.4395,-1.4406,-1.4416,-1.441,-1.4425,-1.4445,-1.4457,-1.4481,-1.4501,-1.4519,-1.4524,-1.4514,-1.4513,-1.452,-1.4523,-1.4524,-1.4525,-1.4436,-1.4511,-1.4511,-1.451,-1.451,-1.451,-1.4393,-1.441,-1.4417,-1.4435,-1.4442,-1.4452,-1.4469,-1.447,-1.4487,-1.4506,-1.4501,-1.4525,-1.4535,-1.4557,-1.4564,-1.4583,-1.4573,-1.4583,-1.4586,-1.4589,-1.4592,-1.452,-1.4586,-1.4586,-1.4586,-1.4586,-1.4586,0,-1.446,-1.4464,-1.448,-1.4495,-1.4509,-1.4497,-1.4508,-1.4522,-1.4542,-1.4552,-1.4567,-1.4591,-1.4611,-1.4615,-1.4634,-1.4649,-1.4645,-1.4654,-1.4653,-1.4655,-1.46,-1.4592,-1.4657,-1.4657,-1.4657,-1.4657,-1.4657,-1.4657,-1.4497,-1.4526,-1.4524,-1.4556,-1.456,-1.4583,-1.459,-1.46,-1.4608,-1.4635,-1.4651,-1.4653,-1.4661,-1.468,-1.4698,-1.4698,-1.4707,-1.4718,-1.4717,-1.4666,-1.4659,-1.4652,-1.4645,-1.4719,-1.472,-1.4771,-1.4771,-1.4771]},{"header":{"parameterUnit":"m.s-1","parameterCategory":1,"la1":30.2991,"la2":30.254,"lo1":-89.0895,"lo2":-89.0444,"dy":0.0017,"dx":0.0017,"nx":28,"ny":28,"refTime":"2025-04-29T09:00:00:Z","depth":0,"parameterNumber":3,"parameterNumberName":"V-component_of_WINDS"},"data":[0,0,0,0,0,0,0,0,0,0,0,0,0,0,0,0,0,0,0,0,0,0,0,0,0,0,0,0,0,0,0,0,0,0,0,0,0,0,0,0,0,0,0,0,0,0,0,0,0,0,0,0,0,0,0,0,0,0,3.2941,3.2941,0,3.2955,3.2955,3.2955,3.2923,3.2922,3.2921,3.292,3.2933,3.2934,3.2935,0,0,0,0,0,0,0,0,0,0,0,0,0,3.2885,3.2886,3.2941,3.2941,3.2941,3.2955,3.2955,3.2955,3.2923,3.2922,3.2921,3.2919,3.2932,3.2934,3.2935,0,0,0,0,0,0,0,0,0,0,0,0,0,3.2905,3.2886,3.2941,3.2927,3.2926,3.2955,3.2955,3.2955,3.2923,3.2922,3.292,3.2919,3.2932,3.2933,3.2935,3.2978,0,0,3.2941,3.2942,0,0,0,0,0,0,0,0,3.2904,3.2907,3.2929,3.2928,3.2927,3.2936,3.294,3.2963,3.2924,3.2924,3.292,3.2918,3.2935,3.2936,3.2942,3.2978,3.2979,3.2941,3.2943,3.2943,3.2944,0,0,0,0,0,0,0,3.2902,3.2906,3.2946,3.2929,3.2928,3.2919,3.292,3.2944,3.2938,3.2924,3.2922,3.2924,3.2934,3.294,3.2942,3.2979,3.2941,3.2943,3.2944,3.2945,3.3049,3.3051,0,0,0,0,0,0,3.2903,3.2905,3.2946,3.2947,3.2911,3.2922,3.2923,3.2934,3.2937,3.2937,3.2925,3.2922,3.2938,3.294,3.2943,3.2991,3.2943,3.2945,3.2946,3.3047,3.3049,3.3051,0,0,0,0,0,0,3.2902,3.2907,3.2945,3.2925,3.293,3.2924,3.2937,3.2935,3.2942,3.2938,3.2937,3.2933,3.2937,3.294,3.2969,3.2991,3.2946,3.2948,3.3046,3.3048,3.305,3.309,0,0,0,0,0,0,3.2901,3.2907,3.2924,3.2926,3.2931,3.2972,3.2939,3.2937,3.2945,3.2942,3.2945,3.2945,3.2936,3.2966,3.2971,3.2993,3.2949,3.3044,3.3047,3.3049,3.3086,3.3093,3.3099,0,0,0,0,0,3.2899,3.2934,3.2925,3.293,3.2952,3.2974,3.2976,3.2966,3.2947,3.2964,3.2961,3.2944,3.2988,3.297,3.2974,3.2997,3.3042,3.3046,3.3049,3.3083,3.3092,3.3099,0,0,0,0,0,0,3.2935,3.2934,3.2924,3.2961,3.2968,3.2968,3.2989,3.2975,3.2987,3.2983,3.2969,3.297,3.3002,3.3003,3.2982,3.3038,3.3012,3.3017,3.3036,3.3044,3.305,3.3049,3.2951,0,0,0,0,0,3.2947,3.2965,3.2964,3.2997,3.3001,3.2994,3.3004,3.2995,3.3001,3.3003,3.3003,3.3009,3.3024,3.3034,3.3048,3.3086,3.3086,3.3104,3.3111,3.3116,3.312,3.3139,3.3147,3.3063,3.3063,3.3063,0,0,3.2972,3.2975,3.2987,3.3005,3.3009,3.3027,3.2997,3.3018,3.3031,3.3006,3.3034,3.3034,3.3039,3.3073,3.3088,3.3075,3.3143,3.3121,3.3125,3.3126,3.3143,3.3151,3.3158,3.3065,3.3065,3.3065,0,0,3.3028,3.3033,3.306,3.3064,3.3071,3.3066,3.3072,3.3075,3.3074,3.3101,3.3082,3.3097,3.3124,3.3128,3.3134,3.319,3.3174,3.3195,3.3227,3.3246,3.3252,3.3258,3.3277,3.3284,3.3199,3.3199,3.3199,0,3.3059,3.3087,3.3075,3.3098,3.3105,3.3083,3.311,3.3115,3.3125,3.3131,3.3116,3.3148,3.315,3.3184,3.3197,3.3203,3.3209,3.3194,3.3252,3.3258,3.3263,3.3281,3.3288,3.3201,3.3201,3.3201,3.32,0,3.3124,3.3143,3.3164,3.3175,3.3185,3.3209,3.32,3.3212,3.3202,3.3198,3.3225,3.3227,3.324,3.3248,3.3239,3.328,3.3271,3.3255,3.3228,3.3274,3.329,3.3297,3.3205,3.3204,3.3203,3.3202,0,0,3.3203,3.3206,3.3214,3.3217,3.3222,3.3237,3.3259,3.3272,3.3281,3.3289,3.3307,3.3329,3.3314,3.332,3.3311,3.3328,3.337,3.3309,3.3309,3.3319,3.3414,3.3426,3.3434,3.336,3.3362,3.3363,3.3413,0,3.3257,3.3296,3.3286,3.3325,3.3342,3.3321,3.334,3.3345,3.3342,3.3355,3.3352,3.3367,3.3346,3.335,3.3365,3.3362,3.3389,3.3358,3.3376,3.3377,3.3374,3.3443,3.3455,3.3503,3.342,3.3421,3.3422,0,3.3326,3.3335,3.3376,3.3376,3.3383,3.3401,3.3411,3.3425,3.3429,3.3425,3.3432,3.3419,3.3441,3.3415,3.3443,3.3422,3.3429,3.3428,3.343,3.343,3.3401,3.3444,3.3518,3.3525,3.3432,3.3431,3.343,0,3.3377,3.3401,3.3428,3.3432,3.3434,3.3446,3.3448,3.345,3.3458,3.3467,3.3472,3.3483,3.3489,3.3497,3.3487,3.347,3.3517,3.349,3.3514,3.3514,3.3524,3.3524,3.3599,3.353,3.353,3.353,3.353,0,3.3438,3.3464,3.3451,3.3467,3.3495,3.3482,3.3509,3.3508,3.351,3.3525,3.3508,3.3523,3.3509,3.3522,3.3515,3.3539,3.3542,3.3539,3.3537,3.354,3.354,3.3544,3.354,3.3532,3.3532,3.3531,3.3531,0,3.3501,3.3494,3.3521,3.352,3.352,3.354,3.3539,3.3554,3.3549,3.3569,3.3572,3.3565,3.3579,3.3571,3.3585,3.358,3.3611,3.3605,3.361,3.3608,3.3631,3.3629,3.3711,3.3721,3.3646,3.3647,3.3648,0,3.354,3.3559,3.3559,3.3568,3.3571,3.3585,3.3593,3.3581,3.3589,3.3595,3.3609,3.3622,3.3631,3.3655,3.365,3.3661,3.3654,3.3682,3.3656,3.3658,3.3653,3.3652,3.3653,3.3687,3.3688,3.3689,3.369,0,3.3609,3.3604,3.3616,3.3626,3.3636,3.3643,3.3649,3.3658,3.3645,3.3656,3.367,3.3677,3.3692,3.3705,3.3713,3.3714,3.3699,3.3698,3.3704,3.3707,3.3709,3.3707,3.3623,3.3696,3.3695,3.3695,3.3695,3.3694,3.366,3.3675,3.3678,3.3691,3.3694,3.37,3.3713,3.371,3.3722,3.3732,3.3725,3.3741,3.3744,3.3754,3.3756,3.3769,3.3757,3.3766,3.3768,3.377,3.3773,3.3708,3.3771,3.377,3.377,3.377,3.377,0,3.3728,3.3728,3.374,3.3749,3.3759,3.3745,3.375,3.3759,3.3774,3.3778,3.3787,3.3803,3.3815,3.3811,3.3822,3.3832,3.3826,3.3835,3.3834,3.3834,3.3783,3.3776,3.384,3.384,3.384,3.384,3.384,3.384,3.3764,3.3788,3.3783,3.3808,3.3808,3.3824,3.3829,3.3833,3.3836,3.3854,3.3864,3.3861,3.3862,3.3872,3.3882,3.388,3.3884,3.3896,3.3892,3.3845,3.3838,3.3831,3.3825,3.3897,3.3897,3.3942,3.3942,3.3942]}]]